Bel Air, Maryland - USA


Today's Data File


8/31/26
Time         Wind Dir   Wind Spd  Wind Gust     Hum In   Humidity    Temp In       Temp  Raw Barom Wind Chill  Press Alt Cloud Base   Dens Alt Temp Out R  DailyRain   24HrRain   RainRate
                    �        mph        mph          %          %         �F         �F         in         �F         ft         ft         ft      �F/hr         in         in      in/hr
12:00am           203          0          0         44         97       72.6       74.9      29.51       74.9        381        226       1514      -1.05       0.00       0.00      0.000
12:02am           203          0          0         44         97       72.4       74.8      29.51       74.8        383        226       1510      -1.10       0.00       0.00      0.000
12:03am           203          0          0         44         97       72.4       74.8      29.51       74.8        384        226       1511      -1.10       0.00       0.00      0.000
12:04am           203          0          0         44         97       72.4       74.8      29.51       74.8        384        226       1511      -1.08       0.00       0.00      0.000
12:05am           203          0          0         44         97       72.4       74.7      29.51       74.7        384        226       1504      -1.16       0.00       0.00      0.000
12:06am           203          0          0         44         97       72.4       74.7      29.51       74.7        383        226       1503      -1.14       0.00       0.00      0.000
12:07am           203          0          0         44         97       72.4       74.7      29.51       74.7        384        226       1504      -1.13       0.00       0.00      0.000
12:08am           203          0          0         44         97       72.4       74.7      29.51       74.7        383        226       1503      -1.11       0.00       0.00      0.000
12:09am           203          0          0         44         97       72.4       74.7      29.51       74.7        383        226       1503      -1.09       0.00       0.00      0.000
12:10am           203          0          0         44         97       72.4       74.6      29.51       74.6        383        226       1497      -1.17       0.00       0.00      0.000
12:11am           203          0          0         44         97       72.4       74.6      29.51       74.6        383        226       1497      -1.15       0.00       0.00      0.000
12:12am           203          0          0         44         97       72.4       74.7      29.51       74.7        384        226       1504      -1.03       0.00       0.00      0.000
12:13am           203          0          0         46         97       72.4       74.6      29.51       74.6        384        226       1498      -1.12       0.00       0.00      0.000
12:14am           203          0          0         44         97       72.4       74.6      29.51       74.6        384        226       1498      -1.10       0.00       0.00      0.000
12:15am           203          0          0         44         97       72.4       74.6      29.51       74.6        384        226       1499      -1.08       0.00       0.00      0.000
12:16am           203          0          0         44         97       72.4       74.6      29.51       74.6        384        226       1498      -1.06       0.00       0.00      0.000
12:17am           203          0          0         44         97       72.4       74.6      29.51       74.6        383        226       1497      -1.04       0.00       0.00      0.000
12:18am           203          0          0         44         97       72.4       74.6      29.51       74.6        381        226       1495      -1.03       0.00       0.00      0.000
12:19am           203          0          0         44         97       72.4       74.5      29.51       74.5        382        226       1489      -1.11       0.00       0.00      0.000
12:20am           203          0          0         44         97       72.4       74.6      29.51       74.6        381        226       1495      -0.99       0.00       0.00      0.000
12:21am           203          0          0         44         97       72.4       74.6      29.51       74.6        380        226       1494      -0.97       0.00       0.00      0.000
12:22am           203          0          0         44         97       72.4       74.6      29.51       74.6        381        226       1495      -0.96       0.00       0.00      0.000
12:23am           203          0          0         44         97       72.4       74.6      29.51       74.6        381        226       1495      -0.94       0.00       0.00      0.000
12:24am           203          0          0         44         97       72.6       74.6      29.51       74.6        381        226       1495      -0.93       0.00       0.00      0.000
12:25am           203          0          0         44         97       72.6       74.7      29.51       74.7        382        226       1502      -0.81       0.00       0.00      0.000
12:26am           203          0          0         44         97       72.6       74.6      29.51       74.6        382        226       1496      -0.90       0.00       0.00      0.000
12:27am           203          0          0         44         97       72.6       74.6      29.51       74.6        382        226       1496      -0.88       0.00       0.00      0.000
12:28am           203          0          0         44         97       72.6       74.7      29.51       74.7        382        226       1502      -0.77       0.00       0.00      0.000
12:29am           203          0          0         44         97       72.6       74.6      29.51       74.6        384        226       1498      -0.85       0.00       0.00      0.000
12:30am           203          0          0         44         97       72.6       74.6      29.51       74.6        384        226       1498      -0.84       0.00       0.00      0.000
12:31am           203          0          0         44         97       72.6       74.6      29.51       74.6        384        226       1499      -0.83       0.00       0.00      0.000
12:32am           203          0          0         46         97       72.6       74.6      29.51       74.6        384        226       1498      -0.81       0.00       0.00      0.000
12:33am           203          0          0         44         97       72.6       74.6      29.51       74.6        384        226       1498      -0.80       0.00       0.00      0.000
12:34am           203          0          0         44         97       72.6       74.6      29.51       74.6        384        226       1498      -0.79       0.00       0.00      0.000
12:35am           203          0          0         44         97       72.6       74.5      29.51       74.5        383        226       1491      -0.87       0.00       0.00      0.000
12:36am           203          0          0         44         97       72.6       74.6      29.51       74.6        381        226       1495      -0.76       0.00       0.00      0.000
12:37am           203          0          0         44         97       72.6       74.5      29.51       74.5        380        226       1487      -0.84       0.00       0.00      0.000
12:38am           203          0          0         44         97       72.6       74.5      29.51       74.5        379        226       1486      -0.83       0.00       0.00      0.000
12:39am           203          0          0         44         97       72.6       74.5      29.51       74.5        379        226       1486      -0.82       0.00       0.00      0.000
12:40am           203          0          0         44         97       72.6       74.5      29.51       74.5        379        226       1486      -0.80       0.00       0.00      0.000
12:41am           203          0          0         44         97       72.4       74.5      29.51       74.5        378        226       1485      -0.79       0.00       0.00      0.000
12:42am           203          0          0         44         97       72.4       74.5      29.51       74.5        378        226       1485      -0.78       0.00       0.00      0.000
12:43am           203          0          0         44         97       72.4       74.4      29.51       74.4        378        226       1479      -0.86       0.00       0.00      0.000
12:44am           203          0          0         44         97       72.4       74.4      29.51       74.4        379        226       1480      -0.85       0.00       0.00      0.000
12:45am           203          0          0         44         97       72.4       74.4      29.51       74.4        379        226       1480      -0.83       0.00       0.00      0.000
12:46am           203          0          0         44         97       72.4       74.4      29.51       74.4        379        226       1480      -0.82       0.00       0.00      0.000
12:47am           203          0          0         44         97       72.4       74.4      29.51       74.4        379        226       1480      -0.81       0.00       0.00      0.000
12:48am           203          0          0         44         97       72.4       74.4      29.51       74.4        379        226       1480      -0.79       0.00       0.00      0.000
12:49am           141          0          0         44         97       72.4       74.4      29.51       74.4        379        226       1480      -0.78       0.00       0.00      0.000
12:50am           141          0          0         44         97       72.4       74.4      29.51       74.4        378        226       1479      -0.77       0.00       0.00      0.000
12:51am           111          0          0         44         97       72.4       74.4      29.51       74.4        378        226       1479      -0.75       0.00       0.00      0.000
12:52am           111          0          0         44         97       72.4       74.4      29.51       74.4        378        226       1479      -0.74       0.00       0.00      0.000
12:53am           111          0          0         44         97       72.4       74.4      29.51       74.4        378        226       1479      -0.73       0.00       0.00      0.000
12:54am           111          0          0         44         98       72.4       74.3      29.51       74.3        378        149       1472      -0.82       0.00       0.00      0.000
12:55am           111          0          0         44         97       72.4       74.3      29.51       74.3        378        226       1472      -0.80       0.00       0.00      0.000
12:56am           111          0          0         44         98       72.4       74.3      29.51       74.3        378        149       1472      -0.79       0.00       0.00      0.000
12:57am           111          0          0         44         98       72.4       74.3      29.51       74.3        378        149       1472      -0.78       0.00       0.00      0.000
12:58am           111          0          0         44         97       72.4       74.4      29.51       74.4        378        226       1479      -0.66       0.00       0.00      0.000
12:59am           105          0          0         44         98       72.4       74.3      29.51       74.3        377        149       1471      -0.75       0.00       0.00      0.000
1:00am            105          0          0         44         97       72.4       74.3      29.51       74.3        378        226       1472      -0.74       0.00       0.00      0.000
1:01am            105          0          0         44         97       72.4       74.3      29.51       74.3        378        226       1472      -0.73       0.00       0.00      0.000
1:02am            105          0          0         44         97       72.4       74.3      29.51       74.3        378        226       1472      -0.71       0.00       0.00      0.000
1:03am            105          0          0         44         98       72.4       74.3      29.51       74.3        378        149       1472      -0.70       0.00       0.00      0.000
1:04am            105          0          0         44         98       72.4       74.3      29.51       74.3        378        149       1472      -0.69       0.00       0.00      0.000
1:05am            105          0          0         44         98       72.4       74.2      29.51       74.2        379        149       1467      -0.78       0.00       0.00      0.000
1:06am            100          0          3         44         98       72.4       74.2      29.51       74.2        379        149       1467      -0.77       0.00       0.00      0.000
1:07am            100          0          3         44         98       72.4       74.3      29.51       74.3        379        149       1473      -0.65       0.00       0.00      0.000
1:08am            100          1          3         44         98       72.4       74.2      29.51       74.2        379        149       1467      -0.74       0.00       0.00      0.000
1:09am            100          0          3         44         98       72.6       74.2      29.51       74.2        379        149       1467      -0.73       0.00       0.00      0.000
1:10am            100          0          3         44         98       72.6       74.2      29.51       74.2        378        149       1466      -0.72       0.00       0.00      0.000
1:11am            100          1          1         44         98       72.6       74.3      29.51       74.3        378        149       1472      -0.61       0.00       0.00      0.000
1:12am            100          1          1         44         98       72.6       74.2      29.51       74.2        378        149       1466      -0.70       0.00       0.00      0.000
1:13am            100          0          1         44         98       72.6       74.2      29.51       74.2        378        149       1466      -0.68       0.00       0.00      0.000
1:14am            100          0          1         44         98       72.6       74.2      29.51       74.2        378        149       1466      -0.67       0.00       0.00      0.000
1:15am            100          0          1         44         98       72.6       74.2      29.51       74.2        378        149       1466      -0.66       0.00       0.00      0.000
1:16am            100          0          0         44         98       72.6       74.1      29.51       74.1        378        149       1460      -0.75       0.00       0.00      0.000
1:17am            100          0          0         44         98       72.6       74.1      29.51       74.1        378        149       1460      -0.74       0.00       0.00      0.000
1:18am            100          0          0         44         98       72.4       74.1      29.51       74.1        378        149       1460      -0.73       0.00       0.00      0.000
1:19am            100          0          0         44         98       72.4       74.1      29.51       74.1        378        149       1460      -0.72       0.00       0.00      0.000
1:20am            100          0          0         44         98       72.4       74.1      29.51       74.1        378        149       1460      -0.70       0.00       0.00      0.000
1:21am            100          0          0         44         98       72.4       74.1      29.51       74.1        377        149       1459      -0.69       0.00       0.00      0.000
1:22am            100          0          0         44         98       72.4       74.0      29.51       74.0        377        149       1452      -0.78       0.00       0.00      0.000
1:23am            100          0          0         44         98       72.4       74.0      29.51       74.0        377        149       1452      -0.77       0.00       0.00      0.000
1:24am            100          0          0         44         98       72.4       74.0      29.51       74.0        377        149       1452      -0.76       0.00       0.00      0.000
1:25am            100          0          0         44         98       72.4       74.1      29.51       74.1        377        149       1459      -0.64       0.00       0.00      0.000
1:26am            100          0          0         44         98       72.4       74.0      29.51       74.0        377        149       1452      -0.73       0.00       0.00      0.000
1:27am            100          0          0         44         98       72.4       74.0      29.51       74.0        377        149       1452      -0.72       0.00       0.00      0.000
1:28am            100          0          0         44         98       72.4       74.1      29.51       74.1        378        149       1460      -0.61       0.00       0.00      0.000
1:29am            100          0          0         44         98       72.4       74.0      29.51       74.0        378        149       1453      -0.70       0.00       0.00      0.000
1:30am            100          0          0         44         98       72.4       74.0      29.51       74.0        378        149       1453      -0.69       0.00       0.00      0.000
1:31am            100          0          0         44         98       72.4       74.0      29.51       74.0        379        149       1454      -0.68       0.00       0.00      0.000
1:32am            100          0          0         44         98       72.4       74.0      29.51       74.0        379        149       1454      -0.67       0.00       0.00      0.000
1:33am            100          0          0         44         98       72.4       74.0      29.51       74.0        379        149       1454      -0.65       0.00       0.00      0.000
1:34am            100          0          0         44         98       72.4       74.0      29.51       74.0        378        149       1453      -0.64       0.00       0.00      0.000
1:35am            100          1          1         44         98       72.4       74.0      29.51       74.0        378        149       1453      -0.63       0.00       0.00      0.000
1:36am            100          0          1         44         98       72.4       74.0      29.51       74.0        378        149       1453      -0.62       0.00       0.00      0.000
1:37am            100          0          1         44         98       72.4       74.0      29.51       74.0        378        149       1453      -0.61       0.00       0.00      0.000
1:38am            100          0          1         44         98       72.4       74.0      29.51       74.0        379        149       1454      -0.60       0.00       0.00      0.000
1:39am            100          0          1         44         98       72.4       73.9      29.51       73.9        379        149       1448      -0.69       0.00       0.00      0.000
1:40am            100          1          1         44         98       72.4       73.9      29.51       73.9        378        149       1447      -0.68       0.00       0.00      0.000
1:41am            100          0          1         44         98       72.4       73.9      29.51       73.9        378        149       1447      -0.67       0.00       0.00      0.000
1:42am            100          0          1         44         98       72.4       74.0      29.51       74.0        379        149       1454      -0.56       0.00       0.00      0.000
1:43am            100          0          1         44         98       72.4       74.0      29.51       74.0        378        149       1453      -0.54       0.00       0.00      0.000
1:44am            100          0          1         44         98       72.4       74.0      29.51       74.0        379        149       1454      -0.53       0.00       0.00      0.000
1:45am            100          0          1         44         98       72.4       74.0      29.51       74.0        379        149       1454      -0.53       0.00       0.00      0.000
1:46am            100          0          0         44         98       72.4       73.9      29.51       73.9        379        149       1448      -0.62       0.00       0.00      0.000
1:47am            100          0          0         44         98       72.4       73.9      29.51       73.9        379        149       1448      -0.61       0.00       0.00      0.000
1:48am            100          0          0         44         98       72.4       73.9      29.51       73.9        379        149       1448      -0.60       0.00       0.00      0.000
1:49am            100          0          0         44         98       72.6       73.9      29.51       73.9        379        149       1448      -0.59       0.00       0.00      0.000
1:50am            100          0          0         44         98       72.6       73.9      29.51       73.9        379        149       1448      -0.58       0.00       0.00      0.000
1:51am            100          0          0         44         98       72.6       73.8      29.51       73.8        379        149       1442      -0.67       0.00       0.00      0.000
1:52am            100          0          0         44         98       72.6       73.9      29.51       73.9        379        149       1448      -0.56       0.00       0.00      0.000
1:53am            100          0          0         44         98       72.6       73.8      29.51       73.8        379        149       1442      -0.64       0.00       0.00      0.000
1:54am            100          0          0         44         98       72.6       73.8      29.51       73.8        379        149       1442      -0.63       0.00       0.00      0.000
1:55am            100          0          0         44         98       72.6       73.8      29.51       73.8        379        149       1442      -0.62       0.00       0.00      0.000
1:56am            100          0          0         44         98       72.6       73.8      29.51       73.8        380        149       1443      -0.61       0.00       0.00      0.000
1:57am            100          0          0         44         98       72.6       73.8      29.51       73.8        380        149       1443      -0.60       0.00       0.00      0.000
1:58am            100          0          0         44         98       72.6       73.8      29.51       73.8        381        149       1444      -0.59       0.00       0.00      0.000
1:59am            100          0          0         44         98       72.6       73.8      29.51       73.8        381        149       1444      -0.58       0.00       0.00      0.000
2:00am            100          0          0         44         98       72.4       73.8      29.51       73.8        382        149       1445      -0.57       0.00       0.00      0.000
2:01am            100          0          0         44         98       72.6       73.8      29.51       73.8        382        149       1445      -0.56       0.00       0.00      0.000
2:02am            100          0          0         44         98       72.4       73.8      29.51       73.8        382        149       1445      -0.55       0.00       0.00      0.000
2:03am            100          0          0         44         98       72.4       73.8      29.51       73.8        383        149       1446      -0.55       0.00       0.00      0.000
2:04am            100          0          0         44         98       72.4       73.8      29.51       73.8        383        149       1446      -0.54       0.00       0.00      0.000
2:05am            100          0          0         44         98       72.4       73.8      29.51       73.8        384        149       1447      -0.53       0.00       0.00      0.000
2:06am            100          0          0         44         98       72.4       73.8      29.51       73.8        384        149       1447      -0.52       0.00       0.00      0.000
2:07am            100          0          0         44         98       72.4       73.7      29.51       73.7        384        149       1441      -0.61       0.00       0.00      0.000
2:08am            100          0          0         44         98       72.4       73.7      29.51       73.7        385        149       1443      -0.60       0.00       0.00      0.000
2:09am            100          0          0         44         98       72.4       73.8      29.51       73.8        384        149       1449      -0.49       0.00       0.00      0.000
2:10am            100          0          0         44         98       72.4       73.7      29.51       73.7        385        149       1443      -0.58       0.00       0.00      0.000
2:11am            100          0          0         44         98       72.4       73.7      29.50       73.7        386        149       1444      -0.57       0.00       0.00      0.000
2:12am            100          0          0         44         98       72.4       73.7      29.50       73.7        386        149       1444      -0.56       0.00       0.00      0.000
2:13am            100          0          0         44         98       72.4       73.7      29.50       73.7        388        149       1447      -0.55       0.00       0.00      0.000
2:14am            100          0          0         44         98       72.4       73.6      29.50       73.6        389        149       1441      -0.64       0.00       0.00      0.000
2:15am            100          0          0         44         98       72.4       73.6      29.50       73.6        389        149       1441      -0.63       0.00       0.00      0.000
2:16am            100          0          0         44         98       72.4       73.6      29.50       73.6        388        149       1440      -0.62       0.00       0.00      0.000
2:17am            100          0          0         44         98       72.4       73.6      29.50       73.6        389        149       1441      -0.61       0.00       0.00      0.000
2:18am            100          0          0         44         98       72.4       73.6      29.50       73.6        389        149       1441      -0.60       0.00       0.00      0.000
2:19am            100          0          0         44         98       72.4       73.6      29.50       73.6        390        149       1443      -0.59       0.00       0.00      0.000
2:20am            100          0          0         44         98       72.4       73.6      29.50       73.6        390        149       1443      -0.58       0.00       0.00      0.000
2:21am            100          0          0         44         98       72.4       73.5      29.50       73.5        390        149       1436      -0.67       0.00       0.00      0.000
2:22am            100          0          0         44         98       72.4       73.5      29.50       73.5        390        149       1436      -0.66       0.00       0.00      0.000
2:23am            100          0          0         44         98       72.4       73.5      29.50       73.5        390        149       1436      -0.65       0.00       0.00      0.000
2:24am            100          0          0         44         98       72.4       73.5      29.50       73.5        391        149       1437      -0.64       0.00       0.00      0.000
2:25am            100          0          0         44         98       72.6       73.5      29.50       73.5        391        149       1437      -0.63       0.00       0.00      0.000
2:26am            100          0          0         44         98       72.6       73.5      29.50       73.5        391        149       1437      -0.61       0.00       0.00      0.000
2:27am            100          0          0         44         98       72.6       73.5      29.50       73.5        392        149       1439      -0.60       0.00       0.00      0.000
2:28am            100          0          0         44         98       72.6       73.4      29.50       73.4        392        149       1432      -0.69       0.00       0.00      0.000
2:29am            100          0          0         44         98       72.6       73.4      29.50       73.4        392        149       1432      -0.68       0.00       0.00      0.000
2:30am            100          0          0         45         98       72.6       73.4      29.50       73.4        392        149       1432      -0.67       0.00       0.00      0.000
2:31am            100          0          0         44         98       72.6       73.4      29.50       73.4        392        149       1432      -0.66       0.00       0.00      0.000
2:32am            100          0          0         44         98       72.6       73.4      29.50       73.4        393        149       1433      -0.65       0.00       0.00      0.000
2:33am            100          0          0         44         99       72.6       73.3      29.50       73.3        393         73       1427      -0.74       0.00       0.00      0.000
2:34am            100          0          0         44         99       72.6       73.3      29.50       73.3        393         73       1427      -0.72       0.00       0.00      0.000
2:35am            100          0          0         44         99       72.6       73.3      29.50       73.3        393         73       1427      -0.71       0.00       0.00      0.000
2:36am            100          0          0         44         99       72.6       73.3      29.50       73.3        393         73       1427      -0.70       0.00       0.00      0.000
2:37am            100          0          0         44         99       72.6       73.3      29.50       73.3        393         73       1427      -0.69       0.00       0.00      0.000
2:38am            100          0          0         44         99       72.6       73.3      29.50       73.3        393         73       1427      -0.68       0.00       0.00      0.000
2:39am            100          0          0         44         99       72.6       73.3      29.50       73.3        393         73       1427      -0.67       0.00       0.00      0.000
2:40am            100          0          0         44         99       72.6       73.2      29.50       73.2        393         73       1421      -0.75       0.00       0.00      0.000
2:41am            100          0          0         44         99       72.6       73.2      29.50       73.2        393         73       1421      -0.74       0.00       0.00      0.000
2:42am            100          0          0         44         99       72.6       73.2      29.50       73.2        393         73       1421      -0.73       0.00       0.00      0.000
2:43am            100          0          0         44         99       72.6       73.2      29.50       73.2        393         73       1421      -0.72       0.00       0.00      0.000
2:44am            100          0          0         44         99       72.6       73.2      29.50       73.2        393         73       1421      -0.71       0.00       0.00      0.000
2:45am            100          0          0         44         99       72.4       73.2      29.50       73.2        393         73       1421      -0.69       0.00       0.00      0.000
2:46am            100          0          0         44         99       72.4       73.1      29.50       73.1        393         73       1414      -0.78       0.00       0.00      0.000
2:47am            100          0          0         44         99       72.4       73.1      29.50       73.1        393         73       1414      -0.77       0.00       0.00      0.000
2:48am            100          0          0         44         99       72.4       73.2      29.50       73.2        393         73       1421      -0.66       0.00       0.00      0.000
2:49am            100          0          0         44         99       72.4       73.1      29.50       73.1        393         73       1414      -0.74       0.00       0.00      0.000
2:50am            100          0          0         44         99       72.4       73.1      29.50       73.1        393         73       1414      -0.73       0.00       0.00      0.000
2:51am            100          0          0         44         99       72.4       73.1      29.50       73.1        394         73       1415      -0.72       0.00       0.00      0.000
2:52am            100          0          0         44         99       72.4       73.0      29.50       73.0        394         73       1409      -0.81       0.00       0.00      0.000
2:53am            100          0          0         44         99       72.4       73.0      29.50       73.0        394         73       1409      -0.80       0.00       0.00      0.000
2:54am            100          0          0         44         99       72.4       73.1      29.50       73.1        394         73       1415      -0.68       0.00       0.00      0.000
2:55am            100          0          0         44         99       72.4       73.0      29.50       73.0        394         73       1409      -0.77       0.00       0.00      0.000
2:56am            100          0          0         44         99       72.4       73.0      29.50       73.0        393         73       1408      -0.76       0.00       0.00      0.000
2:57am            100          0          0         44         99       72.4       73.0      29.50       73.0        393         73       1408      -0.75       0.00       0.00      0.000
2:58am            100          0          0         44         99       72.4       73.0      29.50       73.0        393         73       1408      -0.73       0.00       0.00      0.000
2:59am            100          0          0         44         99       72.4       73.0      29.50       73.0        393         73       1408      -0.72       0.00       0.00      0.000
3:00am            100          0          0         44         99       72.4       73.0      29.50       73.0        393         73       1408      -0.71       0.00       0.00      0.000
3:01am            100          0          0         44         99       72.6       73.0      29.50       73.0        393         73       1408      -0.70       0.00       0.00      0.000
3:02am            100          0          0         44         99       72.6       73.0      29.50       73.0        393         73       1408      -0.69       0.00       0.00      0.000
3:03am            100          0          0         44         99       72.6       72.9      29.50       72.9        393         73       1402      -0.78       0.00       0.00      0.000
3:04am            100          0          0         44         99       72.6       73.0      29.50       73.0        393         73       1408      -0.66       0.00       0.00      0.000
3:05am            100          0          0         44         99       72.6       72.9      29.50       72.9        393         73       1402      -0.75       0.00       0.00      0.000
3:06am            100          0          0         44         99       72.6       72.9      29.50       72.9        393         73       1402      -0.74       0.00       0.00      0.000
3:07am            100          0          0         44         99       72.6       72.9      29.50       72.9        393         73       1402      -0.73       0.00       0.00      0.000
3:08am            100          0          0         44         99       72.6       72.9      29.50       72.9        393         73       1402      -0.72       0.00       0.00      0.000
3:09am            100          0          0         44         99       72.6       72.9      29.50       72.9        394         73       1403      -0.70       0.00       0.00      0.000
3:10am            100          0          0         44         99       72.6       72.8      29.50       72.8        394         73       1396      -0.79       0.00       0.00      0.000
3:11am            100          0          0         44         99       72.6       72.8      29.50       72.8        394         73       1396      -0.78       0.00       0.00      0.000
3:12am            100          0          0         44         99       72.6       72.8      29.50       72.8        394         73       1396      -0.76       0.00       0.00      0.000
3:13am            100          0          0         44         99       72.6       72.8      29.50       72.8        395         73       1397      -0.75       0.00       0.00      0.000
3:14am            100          0          0         44         99       72.6       72.8      29.50       72.8        395         73       1397      -0.74       0.00       0.00      0.000
3:15am            100          0          0         44         99       72.6       72.8      29.50       72.8        395         73       1397      -0.73       0.00       0.00      0.000
3:16am            100          0          0         44         99       72.6       72.8      29.50       72.8        395         73       1397      -0.72       0.00       0.00      0.000
3:17am            100          0          0         44         99       72.6       72.8      29.50       72.8        395         73       1397      -0.70       0.00       0.00      0.000
3:18am            100          0          0         44         99       72.6       72.8      29.50       72.8        395         73       1397      -0.69       0.00       0.00      0.000
3:19am            100          0          0         44         99       72.6       72.8      29.50       72.8        395         73       1397      -0.68       0.00       0.00      0.000
3:20am            100          0          0         44         99       72.6       72.8      29.50       72.8        395         73       1397      -0.67       0.00       0.00      0.000
3:21am            100          0          0         44         99       72.6       72.8      29.50       72.8        394         73       1396      -0.66       0.00       0.00      0.000
3:22am            100          0          0         44         99       72.6       72.8      29.50       72.8        394         73       1396      -0.65       0.00       0.00      0.000
3:23am            100          0          0         44         99       72.6       72.8      29.50       72.8        393         73       1395      -0.64       0.00       0.00      0.000
3:24am            100          0          0         44         99       72.6       72.7      29.50       72.7        393         73       1389      -0.73       0.00       0.00      0.000
3:25am            100          0          0         44         99       72.6       72.7      29.50       72.7        393         73       1389      -0.71       0.00       0.00      0.000
3:26am            100          0          0         44         99       72.6       72.8      29.50       72.8        393         73       1395      -0.60       0.00       0.00      0.000
3:27am            100          0          0         44         99       72.6       72.7      29.50       72.7        393         73       1389      -0.69       0.00       0.00      0.000
3:28am            100          0          0         44         99       72.6       72.6      29.50       72.6        393         73       1382      -0.78       0.00       0.00      0.000

Data provided from:  Mark Hofmann's Bel Air, MD Weather Station